When you browse on this site, cookies collect data to enhance your experience and personalize the content and advertising you see.
Visit our Privacy Policy to learn more. By continuing to use the site, you agree to this use of cookies and data.
  • en Suisse
  • Liste des pays
  • À 7 jours
  • Température de l'eau
  • Carte satellitaire
  • Carte météo
  • Widgets météo
  • user-avatar
    Se connecter

    Météo par heure à Quito

    Ce jour, 21 Janvier, Lundi

    Heure Température Précipitation Vent Pression Humidité
    00:00 +16°C° 0 mm 1 m/s 622 mmHg 96%
    01:00 +16°C° 0 mm 1 m/s 622 mmHg 97%
    02:00 +16°C° 0.1 mm 1 m/s 622 mmHg 97%
    03:00 +16°C° 0.1 mm 1 m/s 622 mmHg 97%
    04:00 +16°C° 0.1 mm 1 m/s 622 mmHg 98%
    05:00 +16°C° 0.4 mm 1 m/s 623 mmHg 97%
    06:00 +18°C° 0.4 mm 1 m/s 623 mmHg 97%
    07:00 +16°C° 0 mm 0 m/s 623 mmHg 96%
    08:00 +19°C° 0.4 mm 1 m/s 624 mmHg 93%
    09:00 +20°C° 0.4 mm 1 m/s 624 mmHg 91%
    10:00 +21°C° 0.4 mm 1 m/s 624 mmHg 88%
    11:00 +22°C° 1.4 mm 1 m/s 624 mmHg 86%
    12:00 +23°C° 1.4 mm 1 m/s 623 mmHg 84%
    13:00 +24°C° 0 mm 2 m/s 624 mmHg 77%
    14:00 +24°C° 0.7 mm 2 m/s 623 mmHg 77%
    15:00 +24°C° 0.7 mm 2 m/s 623 mmHg 77%
    16:00 +24°C° 0.7 mm 3 m/s 622 mmHg 76%
    17:00 +21°C° 0.5 mm 2 m/s 622 mmHg 82%
    18:00 +21°C° 0.5 mm 1 m/s 622 mmHg 88%
    19:00 +19°C° 0.5 mm 1 m/s 621 mmHg 94%
    20:00 +19°C° 0.5 mm 1 m/s 622 mmHg 94%
    21:00 +18°C° 0.5 mm 1 m/s 622 mmHg 93%
    22:00 +18°C° 0.5 mm 1 m/s 623 mmHg 93%
    23:00 +16°C° 0.2 mm 0 m/s 622 mmHg 94%

    Demain, 22 Janvier, Mardi

    Heure Température Précipitation Vent Pression Humidité
    00:00 +15°C° 0.2 mm 0 m/s 622 mmHg 94%
    01:00 +15°C° 0.2 mm 0 m/s 622 mmHg 95%
    02:00 +15°C° 0 mm 0 m/s 622 mmHg 95%
    03:00 +14°C° 0 mm 0 m/s 621 mmHg 96%
    04:00 +14°C° 0 mm 0 m/s 621 mmHg 96%
    05:00 +15°C° 0 mm 0 m/s 622 mmHg 95%
    06:00 +16°C° 0 mm 0 m/s 622 mmHg 95%
    07:00 +16°C° 0 mm 0 m/s 623 mmHg 94%
    08:00 +20°C° 0.2 mm 1 m/s 624 mmHg 87%
    09:00 +22°C° 0.2 mm 1 m/s 624 mmHg 80%
    10:00 +24°C° 0.2 mm 1 m/s 625 mmHg 73%
    11:00 +25°C° 0.3 mm 2 m/s 624 mmHg 69%
    12:00 +26°C° 0.3 mm 2 m/s 624 mmHg 64%
    13:00 +26°C° 0.3 mm 3 m/s 624 mmHg 59%
    14:00 +26°C° 0.1 mm 3 m/s 623 mmHg 62%
    15:00 +26°C° 0.1 mm 3 m/s 622 mmHg 65%
    16:00 +26°C° 0.1 mm 3 m/s 622 mmHg 67%
    17:00 +24°C° 1 mm 2 m/s 621 mmHg 74%
    18:00 +22°C° 1 mm 1 m/s 621 mmHg 81%
    19:00 +20°C° 1 mm 1 m/s 621 mmHg 88%
    20:00 +19°C° 1 mm 1 m/s 621 mmHg 90%
    21:00 +19°C° 1 mm 1 m/s 622 mmHg 91%
    22:00 +18°C° 1 mm 1 m/s 622 mmHg 93%
    23:00 +18°C° 1.8 mm 1 m/s 622 mmHg 94%

    Après-demain, 23 Janvier, Mercredi

    Heure Température Précipitation Vent Pression Humidité
    00:00 +18°C° 1.8 mm 1 m/s 622 mmHg 94%
    01:00 +16°C° 1.8 mm 0 m/s 622 mmHg 95%
    02:00 +18°C° 0.5 mm 1 m/s 621 mmHg 95%
    03:00 +18°C° 0.5 mm 1 m/s 621 mmHg 94%
    04:00 +18°C° 0.5 mm 1 m/s 621 mmHg 94%
    05:00 +18°C° 0 mm 1 m/s 622 mmHg 93%
    06:00 +19°C° 0 mm 1 m/s 622 mmHg 93%
    07:00 +17°C° 0 mm 0 m/s 622 mmHg 92%
    08:00 +21°C° 0.6 mm 1 m/s 623 mmHg 86%
    09:00 +22°C° 0.6 mm 1 m/s 623 mmHg 79%
    10:00 +24°C° 0.6 mm 1 m/s 624 mmHg 73%
    11:00 +24°C° 0.3 mm 1 m/s 623 mmHg 71%
    12:00 +24°C° 0.3 mm 1 m/s 623 mmHg 69%
    13:00 +24°C° 0.3 mm 1 m/s 622 mmHg 68%
    14:00 +24°C° 0.5 mm 1 m/s 622 mmHg 71%
    15:00 +24°C° 0.5 mm 1 m/s 621 mmHg 75%
    16:00 +23°C° 0.5 mm 1 m/s 621 mmHg 79%
    17:00 +22°C° 0.7 mm 1 m/s 621 mmHg 83%
    18:00 +20°C° 0.7 mm 1 m/s 621 mmHg 87%
    19:00 +19°C° 0.7 mm 1 m/s 621 mmHg 91%
    20:00 +18°C° 0 mm 1 m/s 621 mmHg 91%
    21:00 +18°C° 0 mm 1 m/s 621 mmHg 91%
    22:00 +18°C° 0 mm 1 m/s 622 mmHg 92%
    23:00 +16°C° 0 mm 1 m/s 621 mmHg 92%

    24 Janvier, Jeudi

    Heure Température Précipitation Vent Pression Humidité
    00:00 +16°C° 0 mm 1 m/s 621 mmHg 92%
    01:00 +16°C° 0 mm 1 m/s 621 mmHg 92%
    02:00 +16°C° 0 mm 1 m/s 620 mmHg 92%
    03:00 +15°C° 0 mm 1 m/s 620 mmHg 93%
    04:00 +15°C° 0 mm 1 m/s 620 mmHg 93%
    05:00 +16°C° 0 mm 1 m/s 620 mmHg 92%
    06:00 +16°C° 0 mm 1 m/s 621 mmHg 92%
    07:00 +18°C° 0 mm 1 m/s 621 mmHg 91%
    08:00 +20°C° 0 mm 1 m/s 622 mmHg 80%
    09:00 +23°C° 0 mm 1 m/s 623 mmHg 70%
    10:00 +26°C° 0 mm 1 m/s 624 mmHg 60%
    11:00 +26°C° 0 mm 2 m/s 624 mmHg 55%
    12:00 +27°C° 0 mm 3 m/s 623 mmHg 50%
    13:00 +28°C° 0 mm 3 m/s 622 mmHg 46%
    14:00 +27°C° 0 mm 3 m/s 622 mmHg 48%
    15:00 +27°C° 0 mm 3 m/s 621 mmHg 51%
    16:00 +27°C° 0 mm 2 m/s 621 mmHg 54%
    17:00 +25°C° 0 mm 2 m/s 621 mmHg 61%
    18:00 +22°C° 0 mm 1 m/s 620 mmHg 68%
    19:00 +20°C° 0 mm 1 m/s 620 mmHg 76%
    20:00 +20°C° 0 mm 1 m/s 621 mmHg 77%
    21:00 +17°C° 0 mm 0 m/s 621 mmHg 78%
    22:00 +17°C° 0 mm 0 m/s 621 mmHg 80%
    23:00 +16°C° 0 mm 0 m/s 621 mmHg 81%

    25 Janvier, Vendredi

    Heure Température Précipitation Vent Pression Humidité
    00:00 +18°C° 0 mm 1 m/s 621 mmHg 83%
    01:00 +18°C° 0 mm 1 m/s 621 mmHg 85%
    02:00 +18°C° 0.1 mm 1 m/s 621 mmHg 86%
    03:00 +18°C° 0.1 mm 1 m/s 621 mmHg 88%
    04:00 +16°C° 0.1 mm 1 m/s 621 mmHg 89%
    05:00 +18°C° 0.1 mm 1 m/s 621 mmHg 89%
    06:00 +18°C° 0.1 mm 1 m/s 622 mmHg 88%
    07:00 +19°C° 0.1 mm 1 m/s 622 mmHg 88%
    08:00 +19°C° 0.1 mm 1 m/s 622 mmHg 88%
    09:00 +20°C° 0.1 mm 1 m/s 622 mmHg 88%
    10:00 +20°C° 0.1 mm 1 m/s 622 mmHg 87%
    11:00 +23°C° 0.1 mm 1 m/s 623 mmHg 78%
    12:00 +25°C° 0.1 mm 1 m/s 623 mmHg 69%
    13:00 +25°C° 0.1 mm 0 m/s 623 mmHg 60%
    14:00 +27°C° 0.1 mm 1 m/s 623 mmHg 59%
    15:00 +27°C° 0.1 mm 1 m/s 622 mmHg 58%
    16:00 +27°C° 0.1 mm 1 m/s 622 mmHg 57%
    17:00 +25°C° 1.6 mm 1 m/s 622 mmHg 68%
    18:00 +22°C° 1.6 mm 1 m/s 621 mmHg 79%
    19:00 +19°C° 1.6 mm 2 m/s 621 mmHg 90%
    20:00 +18°C° 0.3 mm 2 m/s 622 mmHg 91%
    21:00 +18°C° 0.3 mm 2 m/s 622 mmHg 92%
    22:00 +18°C° 0.3 mm 2 m/s 623 mmHg 92%
    23:00 +18°C° 0.5 mm 2 m/s 622 mmHg 93%

    26 Janvier, Samedi

    Heure Température Précipitation Vent Pression Humidité
    00:00 +18°C° 0.5 mm 2 m/s 622 mmHg 93%
    01:00 +18°C° 0.5 mm 1 m/s 622 mmHg 94%
    02:00 +18°C° 0.9 mm 1 m/s 622 mmHg 94%
    03:00 +18°C° 0.9 mm 1 m/s 621 mmHg 95%
    04:00 +16°C° 0.9 mm 0 m/s 621 mmHg 96%
    05:00 +18°C° 0.8 mm 1 m/s 622 mmHg 95%
    06:00 +18°C° 0.8 mm 1 m/s 622 mmHg 95%
    07:00 +17°C° 0.8 mm 2 m/s 623 mmHg 95%
    08:00 +19°C° 0.1 mm 2 m/s 623 mmHg 90%
    09:00 +21°C° 0.1 mm 1 m/s 624 mmHg 86%
    10:00 +22°C° 0.1 mm 1 m/s 624 mmHg 81%
    11:00 +23°C° 0.1 mm 1 m/s 624 mmHg 77%
    12:00 +24°C° 0.1 mm 1 m/s 624 mmHg 73%
    13:00 +25°C° 0.1 mm 1 m/s 624 mmHg 69%
    14:00 +24°C° 1.4 mm 1 m/s 623 mmHg 74%
    15:00 +23°C° 1.4 mm 1 m/s 622 mmHg 79%
    16:00 +23°C° 1.4 mm 1 m/s 622 mmHg 84%
    17:00 +21°C° 2.4 mm 1 m/s 622 mmHg 87%
    18:00 +20°C° 2.4 mm 1 m/s 622 mmHg 90%
    19:00 +17°C° 2.4 mm 0 m/s 622 mmHg 94%
    20:00 +17°C° 0.5 mm 0 m/s 623 mmHg 94%
    21:00 +17°C° 0.5 mm 0 m/s 623 mmHg 94%
    22:00 +17°C° 0.5 mm 0 m/s 623 mmHg 95%
    23:00 +16°C° 0 mm 0 m/s 623 mmHg 95%
    Voir plus